Tracking 25648 objects as of 18-May-2022
HD Live streaming from Space Station
objects crossing your sky now

ARIANE 1 DEB

Track ARIANE 1 DEB now!


NORAD ID: 27732
Int'l Code: 1979-104S
Perigee: 970.8 km
Apogee: 40,758.5 km
Inclination: 16.2 °
Period: 745.5 minutes
Semi major axis: 27235 km
RCS: 0.2067 m2 (medium)
Launch date: December 24, 1979
Source: European Space Agency (ESA)
Launch site: FRENCH GUIANA (FRGUI)

Note: This is SATELLITE DEBRIS
aabbcc
Your satellite tracking list
Your tracking list is empty




NASA's NSSDC Master Catalog

Two Line Element Set (TLE):
1 27732U 79104S   22135.46593341 -.00000063  00000-0 -65692-2 0  9991
2 27732  16.2213  64.2936 7304347 124.1428 326.7902  1.93151085 57169
Source of the keplerian elements: AFSPC